Showing default

KUIPER-00511, 68888

Orbit data source: Space-Track

KUIPER-00511, 68888 is an American payload satellite in LEO that was launched on Tue, 28 Apr 2026 UTC launched from the Air Force Eastern Test Range (AFETR). Payload-class satellites include a variety of spacecraft equipped with specific instruments for various scientific and technological missions. These include communications satellites like Starlink; space stations such as the ISS; scientific satellites like the Hubble; Earth observation satellites from companies like Planet Labs, Umbra, and HawkEye 360; GPS; miniature CubeSats for education and research; and military/defense satellites.

Loading next visibility...
Identifier
68888, 2026-095AA
Orbit
LEO
Country
Flag of USUS
Related business
None
Manufacturer
Unknown
Mission
Operational spacecraft
Bus & Motor
Unknown
Mass
Unknown
Launch date (UTC)
2026-04-28 (4 days ago)
Launch vehicle
Unknown
Launch site
Air Force Eastern Test Range (AFETR)
Object type
Payload
Rocket body
Debris
Shape & HBR
Unknown
Radar Cross Section
RCS unknown

Expand to show TLE details & history
Last TLE update: 9 hours ago

TLE from 9 hours ago
0 KUIPER-00511
1 68888U 26095AA  26122.16670139 -.00000831  00000-0 -11949-4 0  9998
2 68888  51.8769 104.9236 0007082 119.6051  77.5665 15.36894674  1304
Epoch: 2026-05-02T04:00Z
TLE epoch observation values (Epoch: 2026-05-02T04:00:03.000Z)
Latitude
-13.64416°
Longitude
15.74246°
Altitude
457.781 km
Speed
7.639 km/s
True Right ascension
19h 43m 22s
True Declination
-13° 33' 44"
Sunlit
Object was in daylight at epoch
Visualization orbit readout
Latitude
Unknown
Longitude
Unknown
Altitude
Unknown
Speed
Unknown
Apparent Right ascension
Unknown
Apparent Declination
Unknown
Sunlit
N/A
Visualization observer readout
Local Sidereal Time
20:29:46
Azimuth
Unknown
Elevation
Unknown
Doppler factor
Unknown
Orbital elements
Apogee altitude
460.605 km
Perigee altitude
450.925 km
Semi-major axis
6,833.902 km
Eccentricity
0.00071
Inclination
51.8769°
RAAN
104.9236°
Arg. of periapsis
119.6051°
True anomaly
77.64577°
Mean anomaly
77.5665°
Eccentric anomaly
77.60613°
Mean motion
3.84185 °/min
Orbital period
93.7 mins
BSTAR
-0.000011949
Loading maneuver chart data...
Computing Atmospheric mass density...
Loading historical data...
Loading historical data...
Loading historical data...
Loading historical data...
Loading historical data...
Loading historical data...
Loading historical data...

Documentation

Showing up to 5 results
|